Location: Champseau
(45.8333°N, 1.7667°E)
Time: 20:33:44
(UTC+00:00)

Cosmos 1408 Rocket - Visible Passes

Search period start: 23 July 2021 00:00
Search period end: 02 August 2021 00:00
Orbit: 600 x 631 km, 82.6° (Epoch: 23 July)

Date Brightness Start Highest point End Pass type
(mag) Time Alt. Az. Time Alt. Az. Time Alt. Az.
23 Jul 5.2 21:41:06 18° E 21:41:29 18° E 21:44:26 10° NE visible
23 Jul 4.3 23:18:11 41° WSW 23:18:54 45° WNW 23:23:07 10° N visible
24 Jul 4.5 21:57:11 30° E 21:57:35 30° E 22:01:25 10° NNE visible
24 Jul 5.2 23:34:15 23° W 23:35:22 26° WNW 23:39:04 10° NNW visible
25 Jul 3.7 22:13:14 50° ESE 22:13:46 54° E 22:18:03 10° NNE visible
25 Jul 5.9 23:50:19 13° W 23:51:55 16° WNW 23:54:38 10° NNW visible
26 Jul 3.5 22:29:17 60° SSW 22:30:03 84° W 22:34:26 10° N visible
27 Jul 5.2 21:08:14 16° E 21:09:00 17° E 21:11:49 10° NE visible
27 Jul 4.3 22:45:18 38° WSW 22:46:25 47° WNW 22:50:37 10° N visible
28 Jul 4.5 21:24:14 27° ESE 21:25:06 29° E 21:28:52 10° NNE visible
28 Jul 5.2 23:01:18 22° WSW 23:02:52 27° WNW 23:06:35 10° NNW visible
29 Jul 3.8 21:40:12 40° SE 21:41:17 51° E 21:45:31 10° NNE visible
29 Jul 5.9 23:17:16 12° W 23:19:24 16° WNW 23:22:11 10° NNW visible
30 Jul 3.4 21:56:09 43° S 21:57:33 88° W 22:01:55 10° N visible
31 Jul 5.3 20:35:01 14° ESE 20:36:32 16° E 20:39:12 10° NE visible
31 Jul 4.3 22:12:05 30° SW 22:13:54 49° WNW 22:18:07 10° N visible
01 Aug 4.6 20:50:55 21° SE 20:52:37 28° E 20:56:18 10° NNE visible
01 Aug 5.3 22:27:58 18° WSW 22:30:20 28° WNW 22:34:07 10° NNW visible
